Time,TemperatureF,DewpointF,PressureIn,WindDirection,WindDirectionDegrees,WindSpeedMPH,WindSpeedGustMPH,Humidity,HourlyPrecipIn,Conditions,Clouds,dailyrainin,SoftwareType,DateUTC
2013-01-19 00:00:00,55.8,45.8,30.17,North,0,2.0,7.0,69,0.00,,,-99.99,WeatherLink 5.7,2013-01-19 05:00:00,
2013-01-19 00:15:00,55.5,45.5,30.16,North,0,1.0,9.0,69,0.00,,,-99.99,WeatherLink 5.7,2013-01-19 05:15:00,
2013-01-19 00:30:00,55.1,45.5,30.17,North,0,3.0,12.0,70,0.00,,,-99.99,WeatherLink 5.7,2013-01-19 05:30:00,
2013-01-19 00:45:00,54.8,45.2,30.16,North,0,1.0,10.0,70,0.00,,,-99.99,WeatherLink 5.7,2013-01-19 05:45:00,
2013-01-19 01:00:00,54.5,44.9,30.16,North,0,2.0,10.0,70,0.00,,,-99.99,WeatherLink 5.7,2013-01-19 06:00:00,
2013-01-19 01:15:00,54.3,45.1,30.16,North,0,2.0,9.0,71,0.00,,,-99.99,WeatherLink 5.7,2013-01-19 06:15:00,
2013-01-19 01:30:00,54.0,45.2,30.15,North,0,1.0,11.0,72,0.00,,,-99.99,WeatherLink 5.7,2013-01-19 06:30:00,
2013-01-19 01:45:00,53.7,44.9,30.15,North,0,2.0,11.0,72,0.00,,,-99.99,WeatherLink 5.7,2013-01-19 06:45:00,
2013-01-19 02:00:00,53.5,45.1,30.14,North,0,3.0,13.0,73,0.00,,,-99.99,WeatherLink 5.7,2013-01-19 07:00:00,
2013-01-19 02:15:00,53.5,45.1,30.14,North,0,2.0,9.0,73,0.00,,,-99.99,WeatherLink 5.7,2013-01-19 07:15:00,
2013-01-19 02:30:00,53.3,44.9,30.13,North,0,2.0,10.0,73,0.00,,,-99.99,WeatherLink 5.7,2013-01-19 07:30:00,
2013-01-19 02:45:00,53.3,45.2,30.14,North,0,1.0,10.0,74,0.00,,,-99.99,WeatherLink 5.7,2013-01-19 07:45:00,
2013-01-19 03:00:00,53.3,45.6,30.13,North,0,1.0,9.0,75,0.00,,,-99.99,WeatherLink 5.7,2013-01-19 08:00:00,
2013-01-19 03:15:00,53.4,45.7,30.13,North,0,1.0,5.0,75,0.00,,,-99.99,WeatherLink 5.7,2013-01-19 08:15:00,
2013-01-19 03:30:00,53.5,45.8,30.13,North,0,0.0,5.0,75,0.00,,,-99.99,WeatherLink 5.7,2013-01-19 08:30:00,
2013-01-19 03:45:00,53.6,45.9,30.13,North,0,1.0,6.0,75,0.00,,,-99.99,WeatherLink 5.7,2013-01-19 08:45:00,
2013-01-19 04:00:00,53.6,46.2,30.13,North,0,0.0,6.0,76,0.00,,,-99.99,WeatherLink 5.7,2013-01-19 09:00:00,
2013-01-19 04:15:00,53.5,46.1,30.13,North,0,1.0,6.0,76,0.00,,,-99.99,WeatherLink 5.7,2013-01-19 09:15:00,
2013-01-19 04:30:00,53.5,46.1,30.13,North,0,0.0,6.0,76,0.00,,,-99.99,WeatherLink 5.7,2013-01-19 09:30:00,
2013-01-19 04:45:00,53.6,46.6,30.13,North,0,1.0,7.0,77,0.00,,,-99.99,WeatherLink 5.7,2013-01-19 09:45:00,
2013-01-19 05:00:00,53.7,46.7,30.13,North,0,1.0,6.0,77,0.00,,,-99.99,WeatherLink 5.7,2013-01-19 10:00:00,
2013-01-19 05:15:00,53.9,46.9,30.13,North,0,0.0,6.0,77,0.00,,,-99.99,WeatherLink 5.7,2013-01-19 10:15:00,
2013-01-19 05:30:00,54.1,47.0,30.14,North,0,0.0,8.0,77,0.00,,,-99.99,WeatherLink 5.7,2013-01-19 10:30:00,
2013-01-19 05:45:00,54.2,47.1,30.14,North,0,0.0,6.0,77,0.00,,,-99.99,WeatherLink 5.7,2013-01-19 10:45:00,
2013-01-19 06:00:00,54.3,47.2,30.13,North,0,1.0,11.0,77,0.00,,,-99.99,WeatherLink 5.7,2013-01-19 11:00:00,
2013-01-19 06:15:00,54.2,47.1,30.14,North,0,1.0,5.0,77,0.00,,,-99.99,WeatherLink 5.7,2013-01-19 11:15:00,
2013-01-19 06:30:00,54.2,47.5,30.14,North,0,0.0,10.0,78,0.00,,,-99.99,WeatherLink 5.7,2013-01-19 11:30:00,
2013-01-19 06:45:00,54.3,47.6,30.14,North,0,0.0,6.0,78,0.00,,,-99.99,WeatherLink 5.7,2013-01-19 11:45:00,
2013-01-19 07:00:00,54.5,47.8,30.15,North,0,1.0,7.0,78,0.00,,,-99.99,WeatherLink 5.7,2013-01-19 12:00:00,
2013-01-19 07:15:00,54.7,48.0,30.15,North,0,0.0,4.0,78,0.00,,,-99.99,WeatherLink 5.7,2013-01-19 12:15:00,
2013-01-19 07:30:00,55.0,48.3,30.15,North,0,0.0,7.0,78,0.00,,,-99.99,WeatherLink 5.7,2013-01-19 12:30:00,
2013-01-19 07:45:00,55.2,48.5,30.16,North,0,0.0,5.0,78,0.00,,,-99.99,WeatherLink 5.7,2013-01-19 12:45:00,
2013-01-19 08:00:00,55.4,48.7,30.16,North,0,0.0,7.0,78,0.00,,,-99.99,WeatherLink 5.7,2013-01-19 13:00:00,
2013-01-19 08:15:00,55.7,48.9,30.16,North,0,0.0,4.0,78,0.00,,,-99.99,WeatherLink 5.7,2013-01-19 13:15:00,
2013-01-19 08:30:00,56.1,49.3,30.16,North,0,1.0,9.0,78,0.00,,,-99.99,WeatherLink 5.7,2013-01-19 13:30:00,
2013-01-19 08:45:00,56.5,49.7,30.16,North,0,1.0,5.0,78,0.00,,,-99.99,WeatherLink 5.7,2013-01-19 13:45:00,
2013-01-19 09:00:00,56.9,50.5,30.17,North,0,0.0,3.0,79,0.00,,,-99.99,WeatherLink 5.7,2013-01-19 14:00:00,
2013-01-19 09:15:00,57.4,50.9,30.17,North,0,1.0,10.0,79,0.00,,,-99.99,WeatherLink 5.7,2013-01-19 14:15:00,
2013-01-19 09:30:00,58.8,51.6,30.17,North,0,1.0,13.0,77,0.00,,,-99.99,WeatherLink 5.7,2013-01-19 14:30:00,
2013-01-19 09:45:00,60.3,52.3,30.17,North,0,1.0,8.0,75,0.00,,,-99.99,WeatherLink 5.7,2013-01-19 14:45:00,
2013-01-19 10:00:00,62.2,53.4,30.17,North,0,1.0,9.0,73,0.00,,,-99.99,WeatherLink 5.7,2013-01-19 15:00:00,
2013-01-19 10:15:00,63.8,54.6,30.17,North,0,1.0,6.0,72,0.00,,,-99.99,WeatherLink 5.7,2013-01-19 15:15:00,
2013-01-19 10:30:00,65.4,55.0,30.17,North,0,0.0,6.0,69,0.00,,,-99.99,WeatherLink 5.7,2013-01-19 15:30:00,
2013-01-19 10:45:00,66.9,55.6,30.17,North,0,1.0,10.0,67,0.00,,,-99.99,WeatherLink 5.7,2013-01-19 15:45:00,
2013-01-19 11:00:00,67.7,55.9,30.17,North,0,1.0,6.0,66,0.00,,,-99.99,WeatherLink 5.7,2013-01-19 16:00:00,
2013-01-19 11:15:00,68.5,56.3,30.15,North,0,1.0,11.0,65,0.00,,,-99.99,WeatherLink 5.7,2013-01-19 16:15:00,
2013-01-19 11:30:00,69.4,56.3,30.15,North,0,2.0,7.0,63,0.00,,,-99.99,WeatherLink 5.7,2013-01-19 16:30:00,
2013-01-19 11:45:00,70.0,56.8,30.14,North,0,2.0,6.0,63,0.00,,,-99.99,WeatherLink 5.7,2013-01-19 16:45:00,
2013-01-19 12:00:00,70.6,56.9,30.13,North,0,1.0,10.0,62,0.00,,,-99.99,WeatherLink 5.7,2013-01-19 17:00:00,
2013-01-19 12:15:00,71.2,57.1,30.11,North,0,1.0,6.0,61,0.00,,,-99.99,WeatherLink 5.7,2013-01-19 17:15:00,
2013-01-19 12:30:00,71.7,57.1,30.11,North,0,1.0,9.0,60,0.00,,,-99.99,WeatherLink 5.7,2013-01-19 17:30:00,
2013-01-19 12:45:00,72.2,57.1,30.10,North,0,1.0,9.0,59,0.00,,,-99.99,WeatherLink 5.7,2013-01-19 17:45:00,
2013-01-19 13:00:00,72.4,57.3,30.09,North,0,2.0,12.0,59,0.00,,,-99.99,WeatherLink 5.7,2013-01-19 18:00:00,
2013-01-19 13:15:00,72.7,57.5,30.08,North,0,1.0,9.0,59,0.00,,,-99.99,WeatherLink 5.7,2013-01-19 18:15:00,
2013-01-19 13:30:00,72.8,57.2,30.07,North,0,1.0,9.0,58,0.00,,,-99.99,WeatherLink 5.7,2013-01-19 18:30:00,
2013-01-19 13:45:00,72.8,57.2,30.06,North,0,0.0,4.0,58,0.00,,,-99.99,WeatherLink 5.7,2013-01-19 18:45:00,
2013-01-19 14:00:00,73.2,57.5,30.05,North,0,1.0,10.0,58,0.00,,,-99.99,WeatherLink 5.7,2013-01-19 19:00:00,
2013-01-19 14:15:00,73.5,57.3,30.05,North,0,1.0,10.0,57,0.00,,,-99.99,WeatherLink 5.7,2013-01-19 19:15:00,
2013-01-19 14:30:00,73.7,57.5,30.05,North,0,0.0,5.0,57,0.00,,,-99.99,WeatherLink 5.7,2013-01-19 19:30:00,
2013-01-19 14:45:00,73.8,57.6,30.04,North,0,0.0,3.0,57,0.00,,,-99.99,WeatherLink 5.7,2013-01-19 19:45:00,
2013-01-19 15:00:00,73.8,57.1,30.03,North,0,0.0,4.0,56,0.00,,,-99.99,WeatherLink 5.7,2013-01-19 20:00:00,
2013-01-19 15:15:00,73.7,57.0,30.03,North,0,0.0,3.0,56,0.00,,,-99.99,WeatherLink 5.7,2013-01-19 20:15:00,
2013-01-19 15:30:00,73.9,57.2,30.03,North,0,0.0,5.0,56,0.00,,,-99.99,WeatherLink 5.7,2013-01-19 20:30:00,
2013-01-19 15:45:00,74.0,57.3,30.03,North,0,0.0,3.0,56,0.00,,,-99.99,WeatherLink 5.7,2013-01-19 20:45:00,
2013-01-19 16:00:00,74.0,57.3,30.04,North,0,0.0,6.0,56,0.00,,,-99.99,WeatherLink 5.7,2013-01-19 21:00:00,
2013-01-19 16:15:00,74.0,57.3,30.04,North,0,0.0,4.0,56,0.00,,,-99.99,WeatherLink 5.7,2013-01-19 21:15:00,
2013-01-19 16:30:00,73.7,57.5,30.05,North,-999,0.0,0.0,57,0.00,,,-99.99,WeatherLink 5.7,2013-01-19 21:30:00,
2013-01-19 16:45:00,73.5,57.3,30.05,North,-999,0.0,0.0,57,0.00,,,-99.99,WeatherLink 5.7,2013-01-19 21:45:00,
2013-01-19 17:00:00,73.3,57.1,30.05,North,-999,0.0,0.0,57,0.00,,,-99.99,WeatherLink 5.7,2013-01-19 22:00:00,
2013-01-19 17:15:00,73.0,57.3,30.05,North,0,0.0,1.0,58,0.00,,,-99.99,WeatherLink 5.7,2013-01-19 22:15:00,
2013-01-19 17:30:00,72.6,57.0,30.05,North,0,0.0,3.0,58,0.00,,,-99.99,WeatherLink 5.7,2013-01-19 22:30:00,
2013-01-19 17:45:00,72.1,57.0,30.06,North,0,0.0,3.0,59,0.00,,,-99.99,WeatherLink 5.7,2013-01-19 22:45:00,
2013-01-19 18:00:00,71.8,56.7,30.06,North,-999,0.0,0.0,59,0.00,,,-99.99,WeatherLink 5.7,2013-01-19 23:00:00,
2013-01-19 18:15:00,71.5,56.9,30.06,North,-999,0.0,0.0,60,0.00,,,-99.99,WeatherLink 5.7,2013-01-19 23:15:00,
2013-01-19 18:30:00,71.2,57.1,30.06,North,-999,0.0,0.0,61,0.00,,,-99.99,WeatherLink 5.7,2013-01-19 23:30:00,
2013-01-19 18:45:00,70.8,56.7,30.07,North,-999,0.0,0.0,61,0.00,,,-99.99,WeatherLink 5.7,2013-01-19 23:45:00,
2013-01-19 19:00:00,70.5,56.9,30.07,North,-999,0.0,0.0,62,0.00,,,-99.99,WeatherLink 5.7,2013-01-20 00:00:00,
2013-01-19 19:15:00,70.3,56.7,30.07,North,-999,0.0,0.0,62,0.00,,,-99.99,WeatherLink 5.7,2013-01-20 00:15:00,
2013-01-19 19:30:00,70.0,56.8,30.07,North,-999,0.0,0.0,63,0.00,,,-99.99,WeatherLink 5.7,2013-01-20 00:30:00,
2013-01-19 19:45:00,69.8,56.6,30.07,North,0,0.0,5.0,63,0.00,,,-99.99,WeatherLink 5.7,2013-01-20 00:45:00,
2013-01-19 20:00:00,69.6,56.9,30.07,North,0,0.0,6.0,64,0.00,,,-99.99,WeatherLink 5.7,2013-01-20 01:00:00,
2013-01-19 20:15:00,69.4,57.1,30.08,North,-999,0.0,0.0,65,0.00,,,-99.99,WeatherLink 5.7,2013-01-20 01:15:00,
2013-01-19 20:30:00,69.2,56.9,30.07,North,-999,0.0,0.0,65,0.00,,,-99.99,WeatherLink 5.7,2013-01-20 01:30:00,
2013-01-19 20:45:00,68.9,56.6,30.07,North,0,0.0,4.0,65,0.00,,,-99.99,WeatherLink 5.7,2013-01-20 01:45:00,
2013-01-19 21:00:00,68.6,57.2,30.07,North,0,0.0,5.0,67,0.00,,,-99.99,WeatherLink 5.7,2013-01-20 02:00:00,
2013-01-19 21:15:00,68.2,56.8,30.07,North,0,0.0,3.0,67,0.00,,,-99.99,WeatherLink 5.7,2013-01-20 02:15:00,
2013-01-19 21:30:00,67.8,56.9,30.07,North,0,0.0,3.0,68,0.00,,,-99.99,WeatherLink 5.7,2013-01-20 02:30:00,
2013-01-19 21:45:00,67.5,57.0,30.06,North,0,0.0,1.0,69,0.00,,,-99.99,WeatherLink 5.7,2013-01-20 02:45:00,
2013-01-19 22:00:00,67.1,57.0,30.06,North,0,0.0,2.0,70,0.00,,,-99.99,WeatherLink 5.7,2013-01-20 03:00:00,
2013-01-19 22:15:00,66.7,56.6,30.07,North,-999,0.0,0.0,70,0.00,,,-99.99,WeatherLink 5.7,2013-01-20 03:15:00,
2013-01-19 22:30:00,66.2,56.5,30.07,North,-999,0.0,0.0,71,0.00,,,-99.99,WeatherLink 5.7,2013-01-20 03:30:00,
2013-01-19 22:45:00,65.9,56.2,30.07,North,-999,0.0,0.0,71,0.00,,,-99.99,WeatherLink 5.7,2013-01-20 03:45:00,
2013-01-19 23:00:00,65.5,56.2,30.06,North,-999,0.0,0.0,72,0.00,,,-99.99,WeatherLink 5.7,2013-01-20 04:00:00,
2013-01-19 23:15:00,65.2,55.9,30.07,North,-999,0.0,0.0,72,0.00,,,-99.99,WeatherLink 5.7,2013-01-20 04:15:00,
2013-01-19 23:30:00,64.9,56.0,30.06,North,0,0.0,7.0,73,0.00,,,-99.99,WeatherLink 5.7,2013-01-20 04:30:00,
2013-01-19 23:45:00,64.5,56.0,30.05,North,0,0.0,6.0,74,0.00,,,-99.99,WeatherLink 5.7,2013-01-20 04:45:00,